This is the latest recevied weather packets stored in our database for station/object KC1TWD. If no packets are shown the sender has not sent any weather packets the latest 10 day(s).
| Time | Temp. | Humidity | Pressure | Rain* | Wind** | Luminosity | Snow |
|---|---|---|---|---|---|---|---|
| 1777747735 | 10.56° C | 84% | 1010.7 hPa | 0 mm | - | - | - |
| 1777747430 | 10.56° C | 83% | 1010.6 hPa | 0 mm | - | - | - |
| 1777747127 | 10.56° C | 86% | 1010.7 hPa | 0 mm | - | - | - |
| 1777746823 | 10° C | 90% | 1010.7 hPa | 0 mm | - | - | - |
| 1777746518 | 10° C | 90% | 1010.8 hPa | 0 mm | - | - | - |
| 1777746214 | 10° C | 90% | 1011 hPa | 0 mm | - | - | - |
| 1777745911 | 10° C | 92% | 1010.9 hPa | 0 mm | - | - | - |
| 1777745610 | 10° C | 93% | 1010.9 hPa | 0 mm | - | - | - |
| 1777745307 | 9.44° C | 92% | 1010.9 hPa | 0 mm | - | - | - |
| 1777745004 | 9.44° C | 92% | 1010.9 hPa | 0 mm | - | - | - |
| 1777744700 | 9.44° C | 94% | 1010.6 hPa | 0 mm | - | - | - |
| 1777744394 | 9.44° C | 94% | 1010.7 hPa | 0 mm | - | - | - |
| 1777744092 | 9.44° C | 93% | 1010.8 hPa | 0 mm | - | - | - |
| 1777743789 | 9.44° C | 93% | 1011 hPa | 0 mm | - | - | - |
| 1777743485 | 9.44° C | 94% | 1011.2 hPa | 0 mm | - | - | - |
| 1777743182 | 9.44° C | 94% | 1010.9 hPa | 0 mm | - | - | - |
| 1777742881 | 9.44° C | 96% | 1010.9 hPa | 0 mm | - | - | - |
| 1777742576 | 8.89° C | 96% | 1010.8 hPa | 0 mm | - | - | - |
| 1777742272 | 8.89° C | 96% | 1011 hPa | 0 mm | - | - | - |
| 1777741970 | 8.89° C | 96% | 1011 hPa | 1.78 mm | - | - | - |
| 1777741667 | 8.33° C | 96% | 1011 hPa | 1.78 mm | - | - | - |
| 1777741363 | 8.33° C | 95% | 1011 hPa | 0 mm | - | - | - |
| 1777741060 | 8.33° C | 95% | 1011.1 hPa | 1.27 mm | - | - | - |
| 1777740757 | 8.89° C | 94% | 1011 hPa | 1.27 mm | - | - | - |
| 1777740453 | 8.89° C | 92% | 1011.3 hPa | 0 mm | - | - | - |
* Rain latest hour (hover to see other rain measurements)
** Current wind speed in m/s (hover to see current wind gust speed)